User: anonymous   Login
Location: Antioch Baptist Church
(32.6696°N, 85.7327°W)
Time: 05:14:37
(UTC+00:00)
Language:

ADEOS II - Orbit

View from above orbital plane
View from above orbital plane
View from above satellite
View from above satellite

Ground track
Ground track

The orbit data is extracted from the following two-line orbital elements,

1 27597U 02056A   20273.48739556 +.00000035 +00000-0 +31599-4 0  9993
2 27597 098.5286 218.5003 0002012 065.3118 294.8272 14.27461178926651
Epoch (UTC): 29 September 2020 11:41:50
Eccentricity: 0.0002012
inclination: 98.5286°
perigee height: 799 km
apogee height: 801 km
right ascension of ascending node: 218.5003°
argument of perigee: 65.3118°
revolutions per day: 14.27461178
mean anomaly at epoch: 294.8272°
orbit number at epoch: 92665

The dashed part of the orbit path shows where the satellite is in the earth's shadow,  

DLR